Hourly Data Report for May 11, 2018

TORONTO CITY
ONTARIO
Current Station Operator: ECCC - MSC

43°40'00.000" N
79°24'00.000" W
112.50 m
6158355
71508
XTO

Download Data

Hourly Data (May 2018)
Hourly Data Report for May 11, 2018
TIME
LST
Temp Definition
°C
Dew Point Definition
°C
Rel Hum Definition
%
Precip. Amount Definition
mm

Wind Dir Definition
10's deg

Wind Spd Definition
km/h
Visibility Definition
km
Stn Press Definition
kPa
Hmdx Definition


Wind Chill Definition


Weather Definition


00:00 7.0 -4.6 43 0.0 LegendMM LegendMM   100.25     LegendNANA
01:00 6.4 -2.2 54 0.0 LegendMM LegendMM   100.34     LegendNANA
02:00 6.8 -0.3 60 0.0 LegendMM LegendMM   100.37     LegendNANA
03:00 7.1 -0.4 59 0.0 LegendMM LegendMM   100.42     LegendNANA
04:00 7.0 -1.1 56 0.0 LegendMM LegendMM   100.55     LegendNANA
05:00 6.5 -4.3 46 0.0 LegendMM LegendMM   100.61     LegendNANA
06:00 6.5 -4.3 46 0.0 LegendMM LegendMM   100.74     LegendNANA
07:00 7.1 -4.5 43 0.0 LegendMM LegendMM   100.78     LegendNANA
08:00 7.5 -5.1 41 0.0 LegendMM LegendMM   100.81     LegendNANA
09:00 8.7 -3.8 41 0.0 LegendMM LegendMM   100.86     LegendNANA
10:00 9.2 -5.2 36 0.0 LegendMM LegendMM   100.88     LegendNANA
11:00 9.1 -5.1 36 0.0 LegendMM LegendMM   100.88     LegendNANA
12:00 8.9 -3.2 42 0.0 LegendMM LegendMM   100.91     LegendNANA
13:00 8.5 -4.5 39 0.0 LegendMM LegendMM   100.91     LegendNANA
14:00 9.1 -2.3 45 0.0 LegendMM LegendMM   100.88     LegendNANA
15:00 9.4 -3.4 40 0.0 LegendMM LegendMM   100.80     LegendNANA
16:00 9.7 -3.6 39 0.0 LegendMM LegendMM   100.74     LegendNANA
17:00 10.2 -4.8 35 0.0 LegendMM LegendMM   100.70     LegendNANA
18:00 10.0 -5.5 33 0.0 LegendMM LegendMM   100.71     LegendNANA
19:00 10.0 -4.5 36 0.0 LegendMM LegendMM   100.74     LegendNANA
20:00 9.9 -5.7 33 0.0 LegendMM LegendMM   100.73     LegendNANA
21:00 10.0 -5.6 33 0.0 LegendMM LegendMM   100.75     LegendNANA
22:00 10.4 -6.9 29 0.0 LegendMM LegendMM   100.73     LegendNANA
23:00 10.3 -6.2 31 0.0 LegendMM LegendMM   100.73     LegendNANA

Notes on Data Quality.

Legend

  • E = Estimated
  • M = Missing
  • NA = Not Available*
  • [empty] = Indicates an unobserved value
Date modified: